This is the latest recevied weather packets stored in our database for station/object iw0uwf-4. If no packets are shown the sender has not sent any weather packets the latest 1 day(s).
| Time | Temp. | Humidity | Pressure | Rain* | Wind** | Luminosity | Snow |
|---|---|---|---|---|---|---|---|
| 1778010843 | 15° C | 85% | 1005.8 hPa | 0 mm | 0.89 m/s, 213° | 0 W/m² | - |
| 1778010784 | 15° C | 85% | 1005.8 hPa | 0 mm | 0.89 m/s, 213° | 0 W/m² | - |
| 1778010724 | 15° C | 85% | 1005.8 hPa | 0 mm | 0.89 m/s, 214° | 0 W/m² | - |
| 1778010663 | 15° C | 85% | 1005.9 hPa | 0 mm | 0.89 m/s, 222° | 0 W/m² | - |
| 1778010603 | 15° C | 85% | 1005.8 hPa | 0 mm | 0.89 m/s, 219° | 0 W/m² | - |
| 1778010484 | 15° C | 85% | 1005.8 hPa | 0 mm | 0.89 m/s, 220° | 0 W/m² | - |
| 1778010424 | 15° C | 85% | 1005.8 hPa | 0 mm | 0.89 m/s, 215° | 0 W/m² | - |
| 1778010364 | 15° C | 85% | 1005.7 hPa | 0 mm | 0.89 m/s, 210° | 0 W/m² | - |
| 1778010304 | 15° C | 85% | 1005.7 hPa | 0 mm | 0.89 m/s, 210° | 0 W/m² | - |
| 1778010244 | 15° C | 85% | 1005.7 hPa | 0 mm | 0.89 m/s, 214° | 0 W/m² | - |
| 1778010184 | 15° C | 85% | 1005.8 hPa | 0 mm | 0.89 m/s, 214° | 0 W/m² | - |
| 1778010125 | 15° C | 84% | 1005.7 hPa | 0 mm | 0.89 m/s, 220° | 0 W/m² | - |
| 1778010064 | 15° C | 84% | 1005.9 hPa | 0 mm | 0.89 m/s, 221° | 0 W/m² | - |
| 1778010004 | 15° C | 84% | 1005.7 hPa | 0 mm | 1.34 m/s, 219° | 0 W/m² | - |
| 1778009945 | 15° C | 84% | 1005.7 hPa | 0 mm | 1.34 m/s, 217° | 0 W/m² | - |
| 1778009884 | 15° C | 84% | 1005.7 hPa | 0 mm | 0.89 m/s, 229° | 0 W/m² | - |
| 1778009824 | 15° C | 84% | 1005.7 hPa | 0 mm | 0.89 m/s, 235° | 0 W/m² | - |
| 1778009764 | 15° C | 84% | 1005.7 hPa | 0 mm | 1.34 m/s, 234° | 0 W/m² | - |
| 1778009704 | 15° C | 84% | 1005.6 hPa | 0 mm | 1.34 m/s, 234° | 0 W/m² | - |
| 1778009644 | 15° C | 84% | 1005.7 hPa | 0 mm | 1.34 m/s, 236° | 0 W/m² | - |
| 1778009584 | 15° C | 84% | 1005.7 hPa | 0 mm | 1.34 m/s, 239° | 0 W/m² | - |
| 1778009525 | 15° C | 84% | 1005.8 hPa | 0 mm | 1.34 m/s, 234° | 0 W/m² | - |
| 1778009463 | 15° C | 84% | 1005.8 hPa | 0 mm | 0.89 m/s, 228° | 0 W/m² | - |
| 1778009403 | 15° C | 84% | 1005.8 hPa | 0 mm | 0.89 m/s, 232° | 0 W/m² | - |
| 1778009343 | 15° C | 84% | 1005.8 hPa | 0 mm | 0.89 m/s, 232° | 0 W/m² | - |
* Rain latest hour (hover to see other rain measurements)
** Current wind speed in m/s (hover to see current wind gust speed)